Regional Weather Roundup
Issued by NWS Jackson, KY

Home | Current Version | Previous Version | Text Only | Print | Product List | Glossary On
Versions: 1 2 3 4 5 6 7 8 9 10 11 12 13 14 15 16 17 18 19 20 21 22 23 24 25 26 27 28 29 30 31 32 33 34 35 36 37 38 39 40 41 42 43 44 45 46 47 48 49 50
183
ASUS43 KJKL 060310
RWRJKL

EAST KENTUCKY HOURLY WEATHER ROUNDUP
NATIONAL WEATHER SERVICE JACKSON KY
1000 PM EST FRI FEB 05 2016

NOTE: "FAIR" INDICATES FEW OR NO CLOUDS BELOW 12,000 FEET WITH
NO SIGNIFICANT WEATHER AND/OR OBSTRUCTIONS TO VISIBILITY.

* THESE REPORTS ARE NOT UNDER NWS QUALITY CONTROL AND MAY NOT
  REPORT WEATHER SUCH AS PRECIPITATION AND FOG.

KYZ079-080-083-085-087-088-110-112-115-119-120-060400
...EASTERN KENTUCKY...

CITY           SKY/WX    TMP DP  RH WIND       PRES   REMARKS
JACKSON        CLOUDY    34  13  41 S5        30.36F WCI  30
LONDON         CLOUDY    30  20  66 CALM      30.38R
SOMERSET*      CLOUDY    30  21  69 CALM      30.40F
MONTICELLO*    CLOUDY    26  23  88 VRB7      30.41S WCI  18
WILLIAMSBURG*  CLOUDY    30  18  59 CALM      30.39S
MIDDLESBORO*   CLOUDY    29  22  75 CALM      30.40S
HARLAN APT*      N/A     30  21  69 CALM      30.38R
HAZARD APT*    CLEAR    N/A N/A N/A CALM      30.38S
BLACK MTN*       N/A     25  10  54 S7          N/A  WCI  17
BIG SANDY*     CLOUDY    32  17  52 SE3       30.37S
MOREHEAD APT*  CLOUDY    32  14  47 SE3       30.38F
$$

KYZ035-036-041-042-044-050-067-078-099-060400
...CENTRAL KENTUCKY...

CITY           SKY/WX    TMP DP  RH WIND       PRES   REMARKS
MT STERLING*   CLOUDY    32  21  64 SW5       30.38S WCI  27
DANVILLE*      MOCLDY    32  21  64 SW3       30.38S
RICHMOND*      MOCLDY    34  16  47 S6        30.37S WCI  29
LEXINGTON      CLOUDY    32  19  58 S7        30.36F WCI  26
FRANKFORT      CLOUDY    34  17  50 S5        30.34F WCI  30
$$

KYZ091>093-OHZ055-061-077-WVZ005-015-034-035-042-060400
...SOUTHERN OHIO/WEST VIRGINIA...

CITY           SKY/WX    TMP DP  RH WIND       PRES   REMARKS
COVINGTON      PTCLDY    32  19  58 S7        30.32F WCI  26
COLUMBUS       CLOUDY    34  17  50 S7        30.33F WCI  28
DAYTON         CLOUDY    30  26  85 NW5       30.34S WCI  25
WILMINGTON     MOCLDY    32  21  64 S9        30.32F WCI  24
HUNTINGTON       N/A     31  17  56 CALM      30.38R
CHARLESTON       N/A     29  18  63 CALM      30.38S
PINEVILLE*       N/A     26  19  73 MISG      30.41S
BECKLEY          N/A     24  14  65 S6        30.32F WCI  17
$$

VAZ002-007-008-TNZ017-027-036-066-071-060400
...SOUTHWEST VIRGINIA/EAST TENNESSEE...

CITY           SKY/WX    TMP DP  RH WIND       PRES   REMARKS
BRISTOL        CLOUDY    28  18  66 CALM      30.38R
KNOXVILLE      MOCLDY    34  16  47 CALM      30.39S
OAK RIDGE      CLOUDY    31  20  63 CALM      30.41S
CROSSVILLE     CLOUDY    30  16  56 CALM      30.36F
NASHVILLE      CLOUDY    36  20  52 S5        30.38F WCI  32
$$

...KEY TO REMARKS...
VSB - VISIBILITY IN MILES
WCI - WIND CHILL INDEX
HX  - HEAT INDEX

$$




USA.gov is the U.S. government's official web portal to all federal, state and local government web resources and services.